Logansport, IN

5:15 PM EDT on August 20, 2017 (GMT -0400)
Logansport Municipal

Weather History for KGGP - December, 2012

Change the Weather History Date:

Tuesday, December 4, 2012

  Actual Average Record
Temperature  
Mean Temperature 48 °F -  
Max Temperature 60 °F 43 °F 59 °F (2013)
Min Temperature 35 °F 28 °F 23 °F (2014)
Degree Days  
Heating Degree Days 18    
Moisture  
Dew Point 44 °F    
Average Humidity 84    
Maximum Humidity 100    
Minimum Humidity 71    
Precipitation  
Precipitation 0.11 in - - ()
Sea Level Pressure  
Sea Level Pressure 30.08 in    
Wind  
Wind Speed 10 mph ()    
Max Wind Speed 18 mph    
Max Gust Speed 26 mph    
Visibility 9.4 miles    
Events Rain    
Averages and records for this station are not official NWS values.
T = Trace of Precipitation, MM = Missing Value Source: Averaged Metar Reports

Daily Weather History Graph

Daily Weather History Graph

Search for Another Location

Airport or City:

Trip Planner

Search our weather history database for the weather conditions in past years. The results will help you decide how hot, cold, wet, or windy it might be!

Date:

Astronomy

Dec. 04, 2012 Rise Set
Actual Time 7:53 AM EST 5:18 PM EST
Civil Twilight 7:23 AM EST 5:48 PM EST
Nautical Twilight 6:48 AM EST 6:22 PM EST
Astronomical Twilight 6:15 AM EST 6:55 PM EST
Moon 11:06 PM EST (12/4) 11:46 AM EST (12/4)
Length of Visible Light 10h 25m
Length of Day
9h 24m
Waning Gibbous, 69% of the Moon is Illuminated
Dec 4
Waning Gibbous
Dec 6
Last Quarter
Dec 13
New
Dec 20
First Quarter
Dec 28
Full

Hourly Weather History & Observations

Time (EST) Temp. Windchill Dew Point Humidity Pressure Visibility Wind Dir Wind Speed Gust Speed Precip Events Conditions
12:15 AM 60.8 °F - 53.6 °F 77% 29.96 in 10.0 mi SSW 17.3 mph - N/A   Overcast
12:35 AM 60.8 °F - 53.6 °F 77% 29.97 in 10.0 mi SSW 17.3 mph - N/A   Overcast
12:55 AM 60.8 °F - 53.6 °F 77% 29.96 in 10.0 mi SSW 17.3 mph - N/A   Overcast
1:15 AM 60.8 °F - 53.6 °F 77% 29.96 in 10.0 mi SSW 18.4 mph - N/A   Overcast
1:35 AM 60.8 °F - 51.8 °F 72% 29.96 in 10.0 mi SSW 17.3 mph 21.9 mph N/A   Mostly Cloudy
1:55 AM 60.8 °F - 51.8 °F 72% 29.96 in 10.0 mi SSW 15.0 mph 21.9 mph N/A   Mostly Cloudy
2:15 AM 60.8 °F - 51.8 °F 72% 29.96 in 10.0 mi SSW 13.8 mph - N/A   Overcast
2:35 AM 60.8 °F - 51.8 °F 72% 29.96 in 10.0 mi SSW 15.0 mph - N/A   Overcast
2:55 AM 59.0 °F - 51.8 °F 77% 29.96 in 10.0 mi SSW 15.0 mph - N/A   Overcast
3:15 AM 59.0 °F - 51.8 °F 77% 29.96 in 10.0 mi SSW 15.0 mph - N/A   Mostly Cloudy
3:35 AM 59.0 °F - 51.8 °F 77% 29.96 in 10.0 mi SSW 13.8 mph - N/A   Overcast
3:55 AM 59.0 °F - 51.8 °F 77% 29.96 in 10.0 mi SSW 15.0 mph - N/A   Overcast
4:15 AM 59.0 °F - 51.8 °F 77% 29.96 in 10.0 mi SSW 12.7 mph 18.4 mph N/A   Overcast
4:35 AM 59.0 °F - 51.8 °F 77% 29.96 in 10.0 mi SSW 15.0 mph - N/A   Overcast
4:55 AM 59.0 °F - 51.8 °F 77% 29.96 in 10.0 mi SSW 12.7 mph 18.4 mph N/A   Light Drizzle
5:15 AM 59.0 °F - 51.8 °F 77% 29.96 in 10.0 mi SSW 12.7 mph - N/A   Overcast
5:35 AM 59.0 °F - 51.8 °F 77% 29.96 in 10.0 mi SW 11.5 mph - N/A   Overcast
5:55 AM 59.0 °F - 51.8 °F 77% 29.97 in 10.0 mi SW 10.4 mph - N/A   Overcast
6:15 AM 59.0 °F - 51.8 °F 77% 29.97 in 10.0 mi SW 10.4 mph - N/A   Overcast
6:35 AM 57.2 °F - 53.6 °F 88% 29.98 in 10.0 mi WSW 12.7 mph - 0.01 in   Overcast
6:55 AM 51.8 °F - 50.0 °F 94% 30.01 in 3.0 mi NNW 16.1 mph 20.7 mph 0.01 in Rain Rain
7:15 AM 48.2 °F - 46.4 °F 93% 30.02 in 5.0 mi NNW 15.0 mph 26.5 mph N/A Rain Light Rain
7:35 AM 46.4 °F 40.1 °F 46.4 °F 100% 30.03 in 10.0 mi North 15.0 mph - N/A   Overcast
7:55 AM 46.4 °F 40.4 °F 44.6 °F 93% 30.04 in 10.0 mi North 13.8 mph 19.6 mph N/A Rain Light Rain
8:15 AM 46.4 °F 40.1 °F 44.6 °F 93% 30.05 in 7.0 mi North 15.0 mph 20.7 mph 0.01 in Rain Light Rain
8:35 AM 46.4 °F 41.5 °F 44.6 °F 93% 30.06 in 7.0 mi NNW 10.4 mph - 0.01 in Rain Light Rain
8:55 AM 44.6 °F 38.1 °F 42.8 °F 93% 30.06 in 3.0 mi North 13.8 mph - 0.03 in Rain Rain
9:15 AM 44.6 °F 38.8 °F 42.8 °F 93% 30.06 in 5.0 mi North 11.5 mph 17.3 mph 0.02 in Rain Light Rain
9:35 AM 44.6 °F 40.2 °F 44.6 °F 100% 30.08 in 7.0 mi North 8.1 mph - 0.03 in Rain Rain
9:55 AM 44.6 °F 39.7 °F 42.8 °F 93% 30.09 in 4.0 mi North 9.2 mph - 0.04 in Rain Rain
10:15 AM 44.6 °F 38.8 °F 42.8 °F 93% 30.09 in 4.0 mi North 11.5 mph - 0.02 in Rain Rain
10:35 AM 44.6 °F 40.2 °F 42.8 °F 93% 30.10 in 10.0 mi NNE 8.1 mph - 0.03 in Rain Light Rain
10:55 AM 44.6 °F 40.2 °F 42.8 °F 93% 30.10 in 10.0 mi North 8.1 mph - 0.03 in Rain Light Rain
11:15 AM 44.6 °F 42.2 °F 42.8 °F 93% 30.09 in 10.0 mi North 4.6 mph - N/A   Overcast
11:35 AM 44.6 °F 42.2 °F 42.8 °F 93% 30.09 in 10.0 mi North 4.6 mph - N/A   Overcast
11:55 AM 44.6 °F - 41.0 °F 87% 30.10 in 10.0 mi Calm Calm - N/A   Overcast
12:15 PM 46.4 °F 45.2 °F 42.8 °F 87% 30.09 in 10.0 mi NNW 3.5 mph - N/A   Overcast
12:35 PM 46.4 °F - 41.0 °F 81% 30.09 in 10.0 mi Calm Calm - N/A   Light Drizzle
12:55 PM 46.4 °F - 41.0 °F 81% 30.09 in 10.0 mi Calm Calm - N/A   Unknown
1:15 PM 46.4 °F 45.2 °F 42.8 °F 87% 30.09 in 10.0 mi West 3.5 mph - N/A Rain Light Rain
1:35 PM 46.4 °F 45.2 °F 42.8 °F 87% 30.10 in 10.0 mi West 3.5 mph - N/A   Overcast
1:55 PM 48.2 °F - 42.8 °F 82% 30.09 in 10.0 mi West 4.6 mph - N/A   Overcast
2:15 PM 48.2 °F - 42.8 °F 82% 30.09 in 10.0 mi West 5.8 mph - N/A   Overcast
2:35 PM 50.0 °F - 42.8 °F 76% 30.09 in 10.0 mi WNW 5.8 mph - N/A   Overcast
2:55 PM 50.0 °F - 42.8 °F 76% 30.09 in 10.0 mi WNW 5.8 mph - N/A   Overcast
3:15 PM 50.0 °F - 42.8 °F 76% 30.09 in 10.0 mi NW 4.6 mph - N/A   Overcast
3:35 PM 51.8 °F - 42.8 °F 71% 30.09 in 10.0 mi WNW 3.5 mph - N/A   Mostly Cloudy
3:55 PM 51.8 °F - 44.6 °F 76% 30.11 in 10.0 mi West 4.6 mph - N/A   Mostly Cloudy
4:15 PM 51.8 °F - 42.8 °F 71% 30.11 in 10.0 mi WNW 3.5 mph - N/A   Mostly Cloudy
4:35 PM 50.0 °F - 41.0 °F 71% 30.13 in 10.0 mi West 4.6 mph - N/A   Scattered Clouds
4:55 PM 46.4 °F 44.3 °F 42.8 °F 87% 30.13 in 10.0 mi West 4.6 mph - N/A   Clear
5:15 PM 44.6 °F 41.4 °F 41.0 °F 87% 30.14 in 10.0 mi West 5.8 mph - N/A   Clear
5:35 PM 42.8 °F 38.6 °F 41.0 °F 93% 30.14 in 10.0 mi West 6.9 mph - N/A   Clear
5:55 PM 42.8 °F 38.6 °F 39.2 °F 87% 30.16 in 10.0 mi WSW 6.9 mph - N/A   Clear
6:15 PM 42.8 °F 38.6 °F 39.2 °F 87% 30.16 in 10.0 mi WSW 6.9 mph - N/A   Clear
6:35 PM 41.0 °F 37.1 °F 37.4 °F 87% 30.16 in 10.0 mi WSW 5.8 mph - N/A   Clear
6:55 PM 41.0 °F 37.1 °F 37.4 °F 87% 30.17 in 10.0 mi SW 5.8 mph - N/A   Clear
7:15 PM 39.2 °F 35.9 °F 37.4 °F 93% 30.17 in 10.0 mi WSW 4.6 mph - N/A   Clear
7:35 PM 39.2 °F 35.0 °F 35.6 °F 87% 30.17 in 10.0 mi WSW 5.8 mph - N/A   Clear
7:55 PM 41.0 °F 36.4 °F 35.6 °F 81% 30.16 in 10.0 mi WSW 6.9 mph - N/A   Clear
8:15 PM 37.4 °F 33.8 °F 35.6 °F 93% 30.17 in 10.0 mi WSW 4.6 mph - N/A   Clear
8:35 PM 41.0 °F 38.0 °F 35.6 °F 81% 30.18 in 10.0 mi WSW 4.6 mph - N/A   Clear
8:55 PM 41.0 °F 37.1 °F 35.6 °F 81% 30.18 in 10.0 mi WSW 5.8 mph - N/A   Clear
9:15 PM 39.2 °F 35.9 °F 35.6 °F 87% 30.19 in 10.0 mi WSW 4.6 mph - N/A   Clear
9:35 PM 37.4 °F 32.1 °F 35.6 °F 93% 30.19 in 10.0 mi WSW 6.9 mph - N/A   Clear
9:55 PM 37.4 °F 32.8 °F 33.8 °F 87% 30.19 in 10.0 mi WSW 5.8 mph - N/A   Clear
10:15 PM 35.6 °F 30.7 °F 33.8 °F 93% 30.20 in 10.0 mi SW 5.8 mph - N/A   Clear
10:35 PM 35.6 °F 29.9 °F 33.8 °F 93% 30.21 in 10.0 mi WSW 6.9 mph - N/A   Clear
10:55 PM 35.6 °F 30.7 °F 33.8 °F 93% 30.21 in 10.0 mi WSW 5.8 mph - N/A   Clear
11:15 PM 37.4 °F 34.9 °F 33.8 °F 87% 30.21 in 10.0 mi West 3.5 mph - N/A   Clear
11:35 PM 35.6 °F 29.9 °F 32.0 °F 87% 30.22 in 10.0 mi West 6.9 mph - N/A   Clear
11:55 PM 37.4 °F 32.1 °F 32.0 °F 81% 30.22 in 10.0 mi West 6.9 mph - N/A   Clear